{"data":{"norad_id":67164,"intl_designator":"2025-303B","name":"STARLINK-36201","alt_names":[],"object_type":"PAYLOAD","status":"ACTIVE","operator":null,"country":"US","launch_date":"2025-12-17","launch_site_code":"AFETR","launch_vehicle":null,"mission":null,"orbit_class":"UNKNOWN","rcs_meters":null,"size_class":null,"mass_kg":null,"dimensions":null,"purposes":["comms"],"wikipedia_slug":null,"has_3d_model":false,"image_url":null,"decayed_at":null,"tle_current":{"epoch":"2026-05-24T22:58:52.078080Z","epoch_age_seconds":74848,"freshness":"FRESH","line1":"1 67164U 25303B   26144.95754720  .00015453  00000+0  56994-3 0  9996","line2":"2 67164  42.9994 239.6249 0001264 280.6495  79.4214 15.27576570 24407","mean_motion":15.2757657,"eccentricity":0.0001264,"inclination_deg":42.9994,"raan_deg":239.6249,"arg_perigee_deg":280.6495,"mean_anomaly_deg":79.4214,"bstar":0.00056994,"rev_number":2440,"period_min":94.266960378948,"perigee_km":482.19211149206,"apogee_km":483.92662193356,"semimajor_km":6861.1963667128,"source":"CELESTRAK","updated_at":"2026-05-25T13:38:21.479548Z"}}}